Flag for Switzerland Weather past 2 weeks in Einsiedeln, Schwyz, Switzerland

Now
35 °F

Chilly.


Feels Like: 32 °F
Forecast: 31 / 36 °F
Wind: 3 mph from North

Location: Altdorf

Current Time: Jan 28, 2015 at 2:40:14 AM

Latest Report: Jan 28, 2015 at 2:00 AM


Visibility: N/A

Pressure: 30.27 "Hg

Humidity: 77%

Dew point: 28 °F

Location of EinsiedelnLocation

Historic Weather in Einsiedeln — Graph

°F

Einsiedeln temperature yesterday

Maximum temperature yesterday: 38 °F (at 11:00 AM)
Minimum temperature yesterday: 31 °F (at 1:00 AM)
Average temperature yesterday: 36 °F

Past Weeks' High & Low Weather Summary

 TemperatureHumidityPressure
High58 °F (Jan 16, 11:00 AM)99% (Jan 27, 1:00 AM)30.49 "Hg (Jan 27, 1:00 AM)
Low24 °F (Jan 26, 6:00 AM)23% (Jan 13, 2:00 PM)29.62 "Hg (Jan 16, 3:00 PM)
Average37 °F76%30.06 "Hg
* Reported Jan 13 1:00 AM — Jan 28 1:00 AM, Einsiedeln, Weather by CustomWeather, © 2014

Note: Actual official high and low records may vary slightly from our data, if they occured in-between our weather recording intervals... More about our weather records

Advertising

Einsiedeln weather history for previous 24 hours

 ConditionsComfort  
Time TempWeatherWind HumidityBarometerVisibility
1:00 AM
Jan 28
35 °FSnow flurries. Overcast.2 mph76%30.28 "Hg9 mi
12:00 AM36 °FChilly.12 mph68%30.27 "HgN/A
11:00 PM
Jan 27
37 °FChilly.14 mph65%30.27 "HgN/A
10:00 PM37 °FOvercast.17 mph64%30.27 "Hg9 mi
9:00 PM37 °FChilly.15 mph66%30.27 "HgN/A
8:00 PM38 °FChilly.16 mph61%30.27 "HgN/A
7:00 PM37 °FOvercast.16 mph66%30.26 "Hg9 mi
6:00 PM38 °FChilly.16 mph62%30.26 "HgN/A
5:00 PM37 °FChilly.17 mph67%30.26 "HgN/A
4:00 PM37 °FOvercast.17 mph66%30.25 "Hg11 mi
3:00 PM38 °FChilly.20 mph65%30.24 "HgN/A
2:00 PM38 °FChilly.20 mph66%30.25 "HgN/A
1:00 PM38 °FOvercast.18 mph68%30.26 "Hg9 mi
12:00 PM38 °FChilly.18 mph70%30.27 "HgN/A
11:00 AM38 °FChilly.18 mph66%30.26 "HgN/A
10:00 AM38 °FLight rain. Overcast.18 mph71%30.25 "Hg3 mi
9:00 AM37 °FChilly.16 mph76%30.24 "HgN/A
8:00 AM37 °FChilly.16 mph78%30.24 "HgN/A
7:00 AM37 °FLight rain. Overcast.14 mph82%30.21 "Hg3 mi
6:00 AM37 °FChilly.7 mph81%30.20 "HgN/A
5:00 AM33 °FChilly.1 mph97%30.21 "HgN/A
3:00 AM31 °FChilly.2 mph98%30.23 "HgN/A
2:00 AM31 °FChilly.No wind98%30.24 "HgN/A
Weather by CustomWeather, © 2014

See weather overviewHow to use our weather pages